C/2018 R5 ( Lemmon )

Japanese version
Home page
Updated on November 19, 2018

---------------------------------------------------------------------

* Profile

Discovery Date September 8, 2018
Magnitude 19.0 mag
Discoverer A. D. Grauer (Mount Lemmon)

* Orbital Elements

Epoch 2018 Dec. 28.0 TT = JDT 2458480.5
T 2019 Jan.  9.99002 TT                                 MPCW
q   3.6212550            (2000.0)            P               Q
n   0.00901400     Peri.  178.01368     +0.98874754     -0.00235149
a  22.8660440      Node   171.14160     -0.14712049     +0.16578318
e   0.8416318      Incl.  103.75725     -0.02709008     -0.98615942
P 109
From 157 observations 2018 July 5-Oct. 8, mean residual 0".5.

* Magnitudes Graph

        m1 = 11.0 + 5 log d + 10.0 log r

---------------------------------------------------------------------

The orbital elements are published on M.P.E.C. 2018-U70.
The magnitudes graphs are made with Comet for Windows.

---------------------------------------------------------------------

Copyright(C) Seiichi Yoshida (comet@aerith.net). All rights reserved.